ニート彗星

207P/NEAT (2024)

English version
Home page
Updated on February 29, 2024

---------------------------------------------------------------------

・ プロフィール

・ 写真集

・ 軌道要素

Epoch 2024 Mar. 31.0 TT = JDT 2460400.5
T 2024 Jan. 31.81667 TT                                 Rudenko
q   0.9382470            (2000.0)            P               Q
n   0.12878476     Peri.  272.99152     -0.35585077     -0.93291192
a   3.8835276      Node   198.15597     +0.91228370     -0.33395726
e   0.7584034      Incl.   10.20118     +0.20275273     -0.13471413
P   7.65
>From 604 observations 2000 Oct. 7-2024 Feb. 25, mean residual 0".8.

・ 星図

・ 光度変化

        m1 = 16.0 + 5 logΔ + 10.0 log r

---------------------------------------------------------------------

軌道要素はM.P.E.C. 2024-D126に掲載されたものです。
星図はステラナビゲータ Ver.10 (アストロアーツ) で作成したものです。
光度グラフはComet for Windowsで作成したものです。

---------------------------------------------------------------------

Copyright(C) Seiichi Yoshida (comet@aerith.net). All rights reserved.